Location: Cedar Brake
(32.2526°N, 97.8459°W)
Time: 08:30:49
(UTC+00:00)

Cosmos 1943 Rocket - Pass Details

Date: 22 April 2026
Orbit: 809 x 844 km, 71.0° (Epoch: 14 May)

Event Time Altitude Azimuth Distance (km) Brightness Sun altitude
Rises 01:19:47 0° 348° (NNW) 3,402 5.8 -3.8°
Reaches altitude 10° 01:22:25 10° 357° (N) 2,462 4.9 -4.3°
Maximum altitude 01:27:39 39° 65° (ENE) 1,247 2.8 -5.4°
Drops below altitude 10° 01:32:51 10° 133° (SE) 2,435 4.0 -6.4°
Enters shadow 01:34:26 - 138° (SE) 2,998 4.5 -6.7°
